{"data":{"norad_id":66885,"intl_designator":"2025-283H","name":"STARLINK-35954","alt_names":[],"object_type":"PAYLOAD","status":"ACTIVE","operator":null,"country":"US","launch_date":"2025-12-04","launch_site_code":"AFWTR","launch_vehicle":null,"mission":null,"orbit_class":"UNKNOWN","rcs_meters":null,"size_class":null,"mass_kg":null,"dimensions":null,"purposes":["comms"],"wikipedia_slug":null,"has_3d_model":false,"image_url":null,"decayed_at":null,"tle_current":{"epoch":"2026-05-25T02:19:50.869056Z","epoch_age_seconds":67473,"freshness":"FRESH","line1":"1 66885U 25283H   26145.09711654  .00021880  00000+0  65683-3 0  9993","line2":"2 66885  53.1592  29.1825 0000997  90.2696 269.8421 15.34399343 27548","mean_motion":15.34399343,"eccentricity":9.97e-5,"inclination_deg":53.1592,"raan_deg":29.1825,"arg_perigee_deg":90.2696,"mean_anomaly_deg":269.8421,"bstar":0.00065683,"rev_number":2754,"period_min":93.847798265122,"perigee_km":462.02316098362,"apogee_km":463.3872249169,"semimajor_km":6840.8421929503,"source":"CELESTRAK","updated_at":"2026-05-25T13:38:21.379366Z"}}}